Location: Artiguedieu
(43.5000°N, 0.5454°E)
Time: 12:33:02
(UTC+00:00)

NOSS 2-1 (E) - Pass Details

Date: 06 December 2020
Orbit: 436 x 1766 km, 63.3° (Epoch: 23 January)

Event Time Altitude Azimuth Distance (km) Brightness Sun altitude
Rises 06:22:20 0° 219° (SW) 2,473 6.5 -9.6°
Reaches altitude 10° 06:24:27 10° 221° (SW) 1,556 5.4 -9.2°
Maximum altitude 06:27:45 76° 307° (NW) 456 2.8 -8.7°
Drops below altitude 10° 06:31:13 10° 34° (NE) 1,625 5.9 -8.1°
Sets 06:33:28 0° 36° (NE) 2,598 6.9 -7.7°
